Date_and_time,latitude,longitude,wind_speed,RelWindDirFrom,WindDirFrom,air_pressure,air_temperature,relative_humidity,Temp,platform_speed_wrt_ground,air_pressure_at_mean_sea_level,platform_orientation
2018-06-08 00:00,50.9117266666667,-96.982535,4.2,9.8,205,987.45,27.4,28,22.41,0.0,1012.73,90.0
2018-06-08 00:10,50.911725,-96.9825333333333,3.9,7.1,226,987.51,27.3,29,22.48,0.0,1012.80,90.0
2018-06-08 00:20,50.9117233333333,-96.9825233333333,4.4,9.4,229,987.56,27.0,29,22.54,0.0,1012.86,90.0
2018-06-08 00:30,50.911725,-96.9825216666667,3.7,7.6,221,987.58,26.5,29,22.55,0.0,1012.92,90.0
2018-06-08 00:40,50.911725,-96.982525,3.9,7.2,210,987.64,26.8,29,22.48,0.0,1012.98,90.0
2018-06-08 00:50,50.9117266666667,-96.9825266666667,3.8,6.3,211,987.65,26.9,29,22.46,0.0,1012.97,90.0
2018-06-08 01:00,50.9117333333333,-96.9825333333333,3.7,9.5,293,987.71,26.6,32,22.46,0.0,1013.05,360.0
2018-06-08 01:10,50.9117316666667,-96.9825133333333,7.5,12.4,11,987.86,24.5,41,22.40,0.0,1013.29,360.0
2018-06-08 01:20,50.9117433333333,-96.9825266666667,4.7,9.8,22,988.00,23.4,46,22.19,0.0,1013.47,360.0
2018-06-08 01:30,50.91174,-96.9825216666667,7.0,13.7,28,987.96,23.6,44,21.99,0.0,1013.43,360.0
2018-06-08 01:40,50.9117466666667,-96.982505,6.9,11.7,29,987.96,23.4,43,21.90,0.0,1013.44,360.0
2018-06-08 01:50,50.911735,-96.9825133333333,7.1,10.9,25,987.98,23.2,43,21.82,0.0,1013.46,360.0
2018-06-08 02:00,50.911735,-96.9825216666667,6.1,9.9,20,988.09,22.9,44,21.74,0.0,1013.59,360.0
2018-06-08 02:10,50.9117316666667,-96.9825216666667,5.4,9.9,20,988.23,22.5,46,21.64,0.0,1013.77,360.0
2018-06-08 02:20,50.9117316666667,-96.9825216666667,5.8,9.8,25,988.30,22.1,49,21.51,0.0,1013.88,360.0
2018-06-08 02:30,50.9117333333333,-96.9825233333333,5.9,8.5,35,988.33,21.8,52,21.38,0.0,1013.91,360.0
2018-06-08 02:40,50.911735,-96.982525,5.0,7.5,41,988.39,21.1,56,21.22,0.0,1013.99,360.0
2018-06-08 02:50,50.9117333333333,-96.9825233333333,4.9,6.2,48,988.52,20.5,60,21.03,0.0,1014.16,360.0
2018-06-08 03:00,50.911755,-96.9825216666667,5.5,7.5,38,988.60,19.7,67,20.81,0.0,1014.37,19.0
2018-06-08 03:10,50.9117333333333,-96.9825233333333,4.3,6.9,30,988.53,19.7,66,20.63,0.0,1014.36,19.0
2018-06-08 03:20,50.9117383333333,-96.9825183333333,2.0,6.7,66,988.75,19.6,66,20.52,0.0,1014.57,19.0
2018-06-08 03:30,50.91173,-96.9825233333333,3.6,6.5,76,988.87,19.0,75,20.40,0.0,1014.73,19.0
2018-06-08 03:40,50.9117266666667,-96.9825283333333,3.8,4.8,53,988.80,18.7,78,20.27,0.0,1014.68,19.0
2018-06-08 03:50,50.9117266666667,-96.9825233333333,4.1,4.6,47,988.79,18.5,80,20.16,0.0,1014.69,19.0
2018-06-08 04:00,50.9117266666667,-96.982525,4.3,5.2,39,988.67,18.5,79,20.07,0.0,1014.59,90.0
2018-06-08 04:10,50.9117283333333,-96.9825283333333,3.7,5.3,38,988.56,18.8,73,20.01,0.0,1014.48,90.0
2018-06-08 04:20,50.9117316666667,-96.98253,3.4,5.2,34,988.51,19.0,70,19.97,0.0,1014.44,90.0
2018-06-08 04:30,50.91173,-96.9825283333333,3.5,5.3,46,988.66,19.1,66,19.93,0.0,1014.61,90.0
2018-06-08 04:40,50.9117333333333,-96.98253,2.9,5.6,38,988.83,18.8,69,19.89,0.0,1014.82,90.0
2018-06-08 04:50,50.9117133333333,-96.9825466666667,3.3,4.7,48,988.87,18.7,70,19.85,0.0,1014.91,90.0
2018-06-08 05:00,50.91173,-96.9825366666667,3.1,4.5,51,988.97,18.2,77,19.79,0.0,1015.04,234.2
2018-06-08 05:10,50.9117333333333,-96.9825333333333,0.9,3.2,136,989.30,17.6,81,19.73,0.0,1015.41,234.2
2018-06-08 05:20,50.9117316666667,-96.982525,0.9,3.5,49,989.44,17.8,76,19.66,0.0,1015.56,234.2
2018-06-08 05:30,50.911735,-96.9825183333333,3.9,6.9,2,989.57,18.1,69,19.59,0.0,1015.70,234.2
2018-06-08 05:40,50.9117366666667,-96.9825233333333,4.3,6.1,7,989.50,18.2,66,19.48,0.0,1015.64,234.2
2018-06-08 05:50,50.9117516666667,-96.9825366666667,2.4,4.8,10,989.47,18.1,65,19.38,0.0,1015.61,234.2
2018-06-08 06:00,50.9117383333333,-96.9825483333333,1.2,5.7,215,989.55,17.7,66,19.31,0.0,1015.69,233.8
2018-06-08 06:10,50.9117383333333,-96.9825383333333,2.0,4.4,278,989.59,17.3,68,19.18,0.0,1015.75,233.8
2018-06-08 06:20,50.9117283333333,-96.98254,2.1,3.5,283,989.52,16.8,70,19.10,0.0,1015.69,233.8
2018-06-08 06:30,50.911725,-96.98254,0.9,2.1,275,989.50,16.5,71,19.01,0.0,1015.70,233.8
2018-06-08 06:40,50.911725,-96.9825366666667,0.7,1.7,308,989.54,16.6,71,18.95,0.0,1015.73,233.8
2018-06-08 06:50,50.9117266666667,-96.9825366666667,1.5,2.0,321,989.44,16.2,73,18.87,0.0,1015.67,233.8
2018-06-08 07:00,50.91173,-96.9825333333333,2.0,2.8,335,989.38,16.1,74,18.81,0.0,1015.64,270.0
2018-06-08 07:10,50.91173,-96.9825333333333,1.7,2.5,316,989.39,15.7,76,18.69,0.0,1015.66,270.0
2018-06-08 07:20,50.91173,-96.9825333333333,1.1,3.1,267,989.47,15.7,76,18.56,0.0,1015.74,270.0
2018-06-08 07:30,50.91173,-96.9825316666667,1.8,3.2,263,989.52,16.0,73,18.45,0.0,1015.77,270.0
2018-06-08 07:40,50.9117416666667,-96.98253,1.0,1.5,276,989.54,16.4,72,18.40,0.0,1015.77,270.0
2018-06-08 07:50,50.9117316666667,-96.982525,0.7,1.5,289,989.58,16.4,72,18.37,0.0,1015.83,270.0
2018-06-08 08:00,50.9117316666667,-96.9825233333333,1.2,2.1,166,989.64,16.1,75,18.36,0.0,1015.93,90.0
2018-06-08 08:10,50.9117,-96.9825483333333,1.6,2.3,157,989.61,15.7,78,18.34,0.0,1015.94,90.0
2018-06-08 08:20,50.9117616666667,-96.98249,1.8,2.3,157,989.62,15.6,80,18.33,0.0,1015.96,90.0
2018-06-08 08:30,50.91176,-96.9825133333333,2.2,2.8,154,989.65,15.4,85,18.33,0.0,1016.00,90.0
2018-06-08 08:40,50.9117216666667,-96.9825233333333,1.9,2.7,162,989.67,15.4,82,18.33,0.0,1016.04,90.0
2018-06-08 08:50,50.9117333333333,-96.9825266666667,1.5,2.1,175,989.66,15.4,83,18.29,0.0,1016.03,90.0
2018-06-08 09:00,50.9117383333333,-96.98253,1.2,1.7,173,989.70,15.4,86,18.25,0.0,1016.09,90.0
2018-06-08 09:10,50.9117483333333,-96.9825316666667,0.9,1.3,139,989.69,15.3,87,18.20,0.0,1016.09,90.0
2018-06-08 09:20,50.91175,-96.98253,1.6,2.3,81,989.59,15.7,91,18.15,0.0,1015.95,90.0
2018-06-08 09:30,50.9117483333333,-96.9825333333333,2.9,4.0,64,989.51,15.4,98,18.07,0.0,1015.86,90.0
2018-06-08 09:40,50.911705,-96.98249,2.8,4.3,42,989.25,15.3,99,17.97,0.0,1015.60,90.0
2018-06-08 09:50,50.91173,-96.9825233333333,4.2,5.1,76,989.15,15.6,99,17.83,0.0,1015.50,90.0
2018-06-08 10:00,50.911735,-96.9825266666667,5.6,7.3,83,989.07,15.9,100,17.80,0.0,1015.42,9.8
2018-06-08 10:10,50.9117333333333,-96.9825266666667,7.2,8.6,110,988.92,16.3,94,17.80,0.0,1015.25,9.8
2018-06-08 10:20,50.9117333333333,-96.9825233333333,7.4,8.7,131,988.86,16.4,90,17.83,0.0,1015.20,9.8
2018-06-08 10:30,50.9117333333333,-96.982525,5.5,6.6,145,989.02,16.2,93,17.84,0.0,1015.37,9.8
2018-06-08 10:40,50.9117233333333,-96.9825366666667,4.4,6.1,144,989.15,16.1,95,17.86,0.0,1015.52,9.8
2018-06-08 10:50,50.9117283333333,-96.9825083333333,5.9,6.9,159,989.29,16.0,96,17.87,0.0,1015.66,9.8
2018-06-08 11:00,50.911695,-96.9825116666667,4.7,6.2,172,989.39,15.9,94,17.84,0.0,1015.77,360.0
2018-06-08 11:10,50.911725,-96.9825216666667,3.4,4.6,155,989.38,15.9,87,17.82,0.0,1015.74,360.0
2018-06-08 11:20,50.9117316666667,-96.9825283333333,3.0,3.8,129,989.40,16.0,84,17.84,0.0,1015.76,360.0
2018-06-08 11:30,50.9117266666667,-96.9825233333333,3.4,3.8,144,989.48,16.0,88,17.87,0.0,1015.86,360.0
2018-06-08 11:40,50.9117333333333,-96.9825216666667,3.0,3.4,158,989.69,15.9,89,17.87,0.0,1016.06,360.0
2018-06-08 11:50,50.9117433333333,-96.982555,3.4,5.2,175,989.95,16.0,88,17.85,0.0,1016.31,360.0
2018-06-08 12:00,50.9117366666667,-96.9825216666667,4.5,5.2,163,990.06,16.0,85,17.83,0.0,1016.41,170.2
2018-06-08 12:10,50.911735,-96.9825283333333,6.0,7.3,158,990.15,16.0,86,17.80,0.0,1016.49,170.2
2018-06-08 12:20,50.9117333333333,-96.9825316666667,7.5,8.4,156,990.17,16.0,89,17.75,0.0,1016.52,170.2
2018-06-08 12:30,50.9117316666667,-96.9825283333333,6.8,7.8,149,990.16,15.9,91,17.71,0.0,1016.53,170.2
2018-06-08 12:40,50.9117333333333,-96.9825283333333,7.0,8.0,149,990.23,15.8,95,17.69,0.0,1016.61,170.2
2018-06-08 12:50,50.9117333333333,-96.982525,7.3,8.7,152,990.22,15.7,99,17.68,0.0,1016.61,170.2
2018-06-08 13:00,50.9117333333333,-96.9825266666667,8.3,9.4,156,990.26,15.8,95,17.64,0.0,1016.64,360.0
2018-06-08 13:10,50.9117316666667,-96.9825283333333,8.9,9.7,153,990.23,15.8,95,17.59,0.0,1016.61,360.0
2018-06-08 13:20,50.91174,-96.982525,8.9,10.1,153,990.31,15.8,95,17.56,0.0,1016.69,360.0
2018-06-08 13:30,50.91174,-96.9825383333333,8.6,9.6,145,990.32,15.8,95,17.55,0.0,1016.70,360.0
2018-06-08 13:40,50.911735,-96.9825216666667,9.1,10.5,142,990.20,15.8,93,17.56,0.0,1016.57,360.0
2018-06-08 13:50,50.9117283333333,-96.98252,8.5,10.1,147,990.16,15.9,93,17.58,0.0,1016.53,360.0
2018-06-08 14:00,50.9117283333333,-96.9825216666667,8.6,10.0,147,990.12,16.0,93,17.58,0.0,1016.48,360.0
2018-06-08 14:10,50.9117516666667,-96.98253,7.8,8.9,141,990.04,16.0,92,17.59,0.0,1016.40,360.0
2018-06-08 14:20,50.911735,-96.98252,8.5,10.1,139,989.92,16.0,92,17.61,0.0,1016.29,360.0
2018-06-08 14:30,50.9117333333333,-96.9825216666667,9.1,10.5,148,989.91,16.0,93,17.61,0.0,1016.28,360.0
2018-06-08 14:40,50.9117383333333,-96.98256,9.3,10.9,147,989.88,16.1,91,17.62,0.0,1016.25,360.0
2018-06-08 14:50,50.9117316666667,-96.9825333333333,8.5,9.7,140,989.86,16.2,90,17.62,0.0,1016.22,360.0
2018-06-08 15:00,50.91173,-96.9825283333333,8.2,9.2,131,989.60,16.2,89,17.64,0.0,1015.95,189.8
2018-06-08 15:10,50.9117266666667,-96.9825283333333,6.4,8.1,129,989.47,16.4,88,17.65,0.0,1015.81,189.8
2018-06-08 15:20,50.9117283333333,-96.9825283333333,7.0,10.2,127,989.41,16.5,87,17.66,0.0,1015.74,189.8
2018-06-08 15:30,50.91171,-96.9825066666667,7.6,9.3,129,989.44,16.5,87,17.67,0.0,1015.77,189.8
2018-06-08 15:40,50.9117316666667,-96.9825283333333,6.8,8.3,136,989.59,16.6,88,17.69,0.0,1015.91,189.8
2018-06-08 15:50,50.91173,-96.9825283333333,5.7,7.0,135,989.65,16.5,90,17.73,0.0,1015.97,189.8
2018-06-08 16:00,50.9117316666667,-96.98253,4.9,6.0,135,989.71,16.7,89,17.78,0.0,1016.03,0.0
2018-06-08 16:10,50.9117333333333,-96.9825116666667,7.1,8.7,123,989.64,16.7,89,17.81,0.0,1015.96,0.0
2018-06-08 16:20,50.9117366666667,-96.98252,7.8,9.2,110,989.61,17.4,90,17.81,0.0,1015.90,0.0
2018-06-08 16:30,50.9117383333333,-96.982515,7.1,8.4,110,989.62,17.4,89,17.84,0.0,1015.90,0.0
2018-06-08 16:40,50.91174,-96.982515,7.0,8.5,109,989.65,17.6,88,17.87,0.0,1015.92,0.0
2018-06-08 16:50,50.91174,-96.982515,6.6,8.0,103,989.70,17.7,88,17.91,0.0,1015.96,0.0
2018-06-08 17:00,50.91174,-96.9825166666667,6.4,8.0,102,989.69,17.9,86,17.94,0.0,1015.94,12.9
2018-06-08 17:10,50.911725,-96.9825266666667,4.4,5.4,91,989.75,18.5,82,17.98,0.0,1015.97,12.9
2018-06-08 17:20,50.91171,-96.9825033333333,2.0,3.4,72,989.74,20.1,74,18.03,0.0,1015.89,12.9
2018-06-08 17:30,50.911725,-96.982515,2.0,3.2,75,989.72,21.0,67,18.12,0.0,1015.82,12.9
2018-06-08 17:40,50.91174,-96.98253,2.3,3.7,71,989.59,21.3,67,18.19,0.0,1015.68,12.9
2018-06-08 17:50,50.9117283333333,-96.9825266666667,2.6,4.0,65,989.45,21.6,66,18.28,0.0,1015.50,12.9
2018-06-08 18:00,50.91173,-96.9825283333333,2.3,4.2,63,989.36,21.9,65,18.40,0.0,1015.40,0.0
2018-06-08 18:10,50.9117316666667,-96.98253,2.9,4.2,65,989.24,22.4,64,18.52,0.0,1015.23,0.0
2018-06-08 18:20,50.9117316666667,-96.9825283333333,4.1,5.7,74,989.16,22.6,63,18.66,0.0,1015.13,0.0
2018-06-08 18:30,50.91173,-96.9825266666667,5.5,6.4,78,988.99,22.1,65,18.74,0.0,1014.97,0.0
2018-06-08 18:40,50.91173,-96.98253,4.6,6.4,93,988.98,21.7,69,18.80,0.0,1014.98,0.0
2018-06-08 18:50,50.91173,-96.9825283333333,6.9,8.7,97,988.92,20.7,73,18.82,0.0,1014.96,0.0
2018-06-08 19:00,50.9117283333333,-96.9825283333333,7.3,8.1,98,988.95,20.4,72,18.84,0.0,1014.97,90.0
2018-06-08 19:10,50.9117283333333,-96.9825283333333,7.2,8.6,98,988.90,20.3,73,18.87,0.0,1014.85,90.0
2018-06-08 19:20,50.9117283333333,-96.98253,7.8,8.6,102,988.84,20.4,70,18.90,0.0,1014.75,90.0
2018-06-08 19:30,50.91174,-96.9825633333333,7.8,8.9,105,988.80,20.4,70,18.93,0.0,1014.69,90.0
2018-06-08 19:40,50.91171,-96.9825166666667,7.4,8.4,105,988.72,20.4,70,18.94,0.0,1014.60,90.0
2018-06-08 19:50,50.9117316666667,-96.9825216666667,7.9,8.9,103,988.65,20.5,68,18.95,0.0,1014.50,90.0
2018-06-08 20:00,50.9116983333333,-96.9825266666667,6.8,8.0,96,988.62,20.7,68,18.98,0.0,1014.45,360.0
2018-06-08 20:10,50.9117283333333,-96.982535,5.6,7.2,88,988.61,21.0,69,19.05,0.0,1014.41,360.0
2018-06-08 20:20,50.9117216666667,-96.9825383333333,3.8,5.9,80,988.60,21.7,66,19.12,0.0,1014.40,360.0
2018-06-08 20:30,50.9117316666667,-96.9825116666667,3.7,4.9,73,988.53,22.4,65,19.19,0.0,1014.31,360.0
2018-06-08 20:40,50.91173,-96.98258,3.9,4.8,75,988.55,22.9,61,19.28,0.0,1014.34,360.0
2018-06-08 20:50,50.9117366666667,-96.9825533333333,3.0,4.1,71,988.52,23.7,57,19.39,0.0,1014.29,360.0
2018-06-08 21:00,50.9117333333333,-96.9825466666667,2.8,4.5,66,988.46,24.0,56,19.51,0.0,1014.22,270.0
2018-06-08 21:10,50.911735,-96.98254,2.9,4.2,60,988.42,23.7,56,19.62,0.0,1014.19,270.0
2018-06-08 21:20,50.911735,-96.98254,3.1,4.6,62,988.26,23.3,58,19.73,0.0,1014.04,270.0
2018-06-08 21:30,50.9117316666667,-96.9825283333333,4.2,5.7,62,988.12,23.5,57,19.81,0.0,1013.90,270.0
2018-06-08 21:40,50.9117383333333,-96.9825433333333,4.6,5.8,61,988.05,23.7,60,19.90,0.0,1013.81,270.0
2018-06-08 21:50,50.9117433333333,-96.982535,4.6,5.8,65,988.02,23.9,62,20.01,0.0,1013.76,270.0
2018-06-08 22:00,50.9117416666667,-96.9825333333333,5.1,8.0,71,987.99,23.8,64,20.09,0.0,1013.72,319.1
2018-06-08 22:10,50.91174,-96.9825283333333,6.4,8.3,76,987.92,23.4,62,20.16,0.0,1013.64,319.1
2018-06-08 22:20,50.9117416666667,-96.9825316666667,6.4,8.4,79,987.90,23.5,59,20.22,0.0,1013.58,319.1
2018-06-08 22:30,50.9117416666667,-96.9825316666667,6.2,7.1,86,987.88,23.3,61,20.27,0.0,1013.54,319.1
2018-06-08 22:40,50.9117416666667,-96.98253,7.5,8.4,90,987.79,22.7,62,20.27,0.0,1013.45,319.1
2018-06-08 22:50,50.9117233333333,-96.982525,8.0,8.9,92,987.73,22.4,64,20.25,0.0,1013.38,319.1
2018-06-08 23:00,50.911725,-96.98252,7.1,8.1,86,987.68,22.6,64,20.25,0.0,1013.34,11.7
2018-06-08 23:10,50.911725,-96.982525,7.1,8.7,84,987.61,22.9,61,20.30,0.0,1013.27,11.7
2018-06-08 23:20,50.911755,-96.9825416666667,8.0,8.7,89,987.52,22.8,61,20.35,0.0,1013.17,11.7
2018-06-08 23:30,50.91174,-96.9825366666667,7.4,9.6,83,987.52,22.8,62,20.37,0.0,1013.16,11.7
2018-06-08 23:40,50.9117366666667,-96.9825366666667,6.8,9.6,74,987.52,22.3,68,20.40,0.0,1013.18,11.7
